When you browse on this site, cookies collect data to enhance your experience and personalize the content and advertising you see.
Visit our Privacy Policy to learn more. By continuing to use the site, you agree to this use of cookies and data.
  • In Portugal
  • List of Countries
  • For 7 days
  • Water Temperature
  • Satellite Maps
  • Weather Map
  • Weather Widgets
  • user-avatar
    Login

    Hourly Weather Fakuoka

    Today, 19 February, Tuesday

    Time Temperature Precipitation Wind Pressure Humidity
    00:00 +9°C° 0.3 mm 1 mps 745 mmHg 75%
    01:00 +9°C° 0.9 mm 1 mps 745 mmHg 78%
    02:00 +9°C° 0.9 mm 1 mps 744 mmHg 82%
    03:00 +9°C° 0 mm 1 mps 744 mmHg 88%
    04:00 +8°C° 2.3 mm 2 mps 743 mmHg 89%
    05:00 +8°C° 2.3 mm 2 mps 742 mmHg 90%
    06:00 +9°C° 2.3 mm 2 mps 741 mmHg 91%
    07:00 +9°C° 2 mm 2 mps 741 mmHg 91%
    08:00 +10°C° 2 mm 3 mps 740 mmHg 91%
    09:00 +10°C° 0 mm 6 mps 739 mmHg 92%
    10:00 +12°C° 1.5 mm 5 mps 739 mmHg 93%
    11:00 +13°C° 1.5 mm 5 mps 739 mmHg 94%
    12:00 +14°C° 1.5 mm 4 mps 739 mmHg 96%
    13:00 +15°C° 0 mm 5 mps 739 mmHg 88%
    14:00 +16°C° 0 mm 5 mps 739 mmHg 81%
    15:00 +18°C° 0 mm 4 mps 739 mmHg 77%
    16:00 +17°C° 0 mm 4 mps 740 mmHg 80%
    17:00 +16°C° 0 mm 3 mps 740 mmHg 83%
    18:00 +13°C° 0 mm 3 mps 741 mmHg 86%
    19:00 +13°C° 0.1 mm 3 mps 741 mmHg 85%
    20:00 +12°C° 0.1 mm 3 mps 742 mmHg 84%
    21:00 +12°C° 0.1 mm 3 mps 742 mmHg 84%
    22:00 +11°C° 0 mm 3 mps 743 mmHg 83%
    23:00 +11°C° 0 mm 3 mps 743 mmHg 82%

    Tomorrow, 20 February, Wednesday

    Time Temperature Precipitation Wind Pressure Humidity
    00:00 +10°C° 0 mm 3 mps 743 mmHg 82%
    01:00 +10°C° 0 mm 3 mps 743 mmHg 81%
    02:00 +9°C° 0 mm 3 mps 744 mmHg 80%
    03:00 +9°C° 0 mm 3 mps 744 mmHg 78%
    04:00 +9°C° 0 mm 3 mps 744 mmHg 77%
    05:00 +9°C° 0 mm 3 mps 744 mmHg 77%
    06:00 +8°C° 0 mm 3 mps 744 mmHg 76%
    07:00 +8°C° 0 mm 3 mps 745 mmHg 74%
    08:00 +7°C° 0 mm 4 mps 745 mmHg 73%
    09:00 +7°C° 0 mm 4 mps 746 mmHg 72%
    10:00 +7°C° 0 mm 4 mps 746 mmHg 71%
    11:00 +7°C° 0 mm 4 mps 746 mmHg 69%
    12:00 +8°C° 0 mm 3 mps 746 mmHg 68%
    13:00 +9°C° 0 mm 3 mps 746 mmHg 67%
    14:00 +9°C° 0 mm 3 mps 746 mmHg 65%
    15:00 +9°C° 0 mm 3 mps 746 mmHg 63%
    16:00 +8°C° 0 mm 3 mps 746 mmHg 64%
    17:00 +8°C° 0 mm 3 mps 746 mmHg 64%
    18:00 +8°C° 0 mm 2 mps 746 mmHg 65%
    19:00 +7°C° 0 mm 2 mps 747 mmHg 66%
    20:00 +7°C° 0 mm 2 mps 747 mmHg 67%
    21:00 +8°C° 0 mm 1 mps 747 mmHg 68%
    22:00 +7°C° 0 mm 1 mps 747 mmHg 69%
    23:00 +7°C° 0 mm 1 mps 747 mmHg 69%

    Day after tomorrow, 21 February, Thursday

    Time Temperature Precipitation Wind Pressure Humidity
    00:00 +7°C° 0 mm 1 mps 747 mmHg 70%
    01:00 +7°C° 0 mm 1 mps 747 mmHg 70%
    02:00 +7°C° 0 mm 1 mps 747 mmHg 70%
    03:00 +7°C° 0 mm 1 mps 747 mmHg 70%
    04:00 +7°C° 0 mm 1 mps 747 mmHg 70%
    05:00 +7°C° 0 mm 1 mps 747 mmHg 70%
    06:00 +7°C° 0 mm 1 mps 746 mmHg 70%
    07:00 +6°C° 0 mm 2 mps 747 mmHg 67%
    08:00 +7°C° 0 mm 2 mps 747 mmHg 64%
    09:00 +8°C° 0 mm 2 mps 748 mmHg 61%
    10:00 +9°C° 0 mm 2 mps 748 mmHg 57%
    11:00 +10°C° 0 mm 2 mps 748 mmHg 52%
    12:00 +12°C° 0 mm 2 mps 748 mmHg 48%
    13:00 +12°C° 0 mm 2 mps 747 mmHg 46%
    14:00 +12°C° 0 mm 2 mps 747 mmHg 45%
    15:00 +12°C° 0 mm 3 mps 746 mmHg 44%
    16:00 +11°C° 0 mm 3 mps 746 mmHg 47%
    17:00 +10°C° 0 mm 3 mps 746 mmHg 51%
    18:00 +9°C° 0 mm 3 mps 746 mmHg 55%
    19:00 +8°C° 0 mm 3 mps 746 mmHg 57%
    20:00 +8°C° 0 mm 2 mps 746 mmHg 60%
    21:00 +7°C° 0 mm 2 mps 747 mmHg 62%
    22:00 +7°C° 0 mm 2 mps 746 mmHg 63%
    23:00 +7°C° 0 mm 2 mps 746 mmHg 65%

    22 February, Friday

    Time Temperature Precipitation Wind Pressure Humidity
    00:00 +7°C° 0 mm 2 mps 746 mmHg 66%
    01:00 +8°C° 0 mm 1 mps 746 mmHg 66%
    02:00 +8°C° 0 mm 1 mps 745 mmHg 66%
    03:00 +7°C° 0 mm 1 mps 745 mmHg 66%
    04:00 +7°C° 0 mm 1 mps 745 mmHg 67%
    05:00 +7°C° 0 mm 1 mps 744 mmHg 67%
    06:00 +7°C° 0 mm 1 mps 744 mmHg 67%
    07:00 +8°C° 0 mm 1 mps 744 mmHg 66%
    08:00 +8°C° 0 mm 1 mps 744 mmHg 65%
    09:00 +9°C° 0 mm 1 mps 744 mmHg 64%
    10:00 +9°C° 0.2 mm 1 mps 744 mmHg 63%
    11:00 +10°C° 0.2 mm 1 mps 743 mmHg 61%
    12:00 +11°C° 0.2 mm 1 mps 743 mmHg 60%
    13:00 +10°C° 1 mm 1 mps 742 mmHg 64%
    14:00 +10°C° 1 mm 1 mps 741 mmHg 69%
    15:00 +9°C° 1 mm 0 mps 740 mmHg 73%
    16:00 +9°C° 2.3 mm 1 mps 740 mmHg 78%
    17:00 +9°C° 2.3 mm 1 mps 740 mmHg 83%
    18:00 +8°C° 2.3 mm 1 mps 739 mmHg 87%
    19:00 +7°C° 1.4 mm 2 mps 739 mmHg 88%
    20:00 +7°C° 1.4 mm 2 mps 739 mmHg 89%
    21:00 +8°C° 1.4 mm 2 mps 739 mmHg 90%
    22:00 +8°C° 0.7 mm 3 mps 739 mmHg 90%
    23:00 +8°C° 0.7 mm 3 mps 740 mmHg 89%

    23 February, Saturday

    Time Temperature Precipitation Wind Pressure Humidity
    00:00 +8°C° 0.7 mm 3 mps 740 mmHg 89%
    01:00 +8°C° 0.5 mm 3 mps 739 mmHg 87%
    02:00 +7°C° 0.5 mm 3 mps 739 mmHg 85%
    03:00 +7°C° 0.5 mm 3 mps 739 mmHg 83%
    04:00 +7°C° 0.2 mm 3 mps 739 mmHg 82%
    05:00 +7°C° 0.2 mm 2 mps 739 mmHg 82%
    06:00 +7°C° 0.2 mm 2 mps 739 mmHg 81%
    07:00 +8°C° 0.2 mm 2 mps 740 mmHg 81%
    08:00 +8°C° 0.2 mm 3 mps 740 mmHg 81%
    09:00 +8°C° 0.2 mm 3 mps 741 mmHg 80%
    10:00 +9°C° 0.4 mm 3 mps 741 mmHg 77%
    11:00 +9°C° 0.4 mm 3 mps 741 mmHg 73%
    12:00 +9°C° 0.4 mm 3 mps 741 mmHg 70%
    13:00 +10°C° 0.1 mm 4 mps 741 mmHg 65%
    14:00 +11°C° 0.1 mm 4 mps 741 mmHg 60%
    15:00 +10°C° 0.1 mm 5 mps 741 mmHg 54%
    16:00 +9°C° 0 mm 5 mps 742 mmHg 57%
    17:00 +10°C° 0 mm 4 mps 742 mmHg 59%
    18:00 +8°C° 0 mm 4 mps 742 mmHg 61%
    19:00 +7°C° 0 mm 4 mps 743 mmHg 63%
    20:00 +7°C° 0 mm 4 mps 744 mmHg 64%
    21:00 +6°C° 0 mm 5 mps 744 mmHg 65%
    22:00 +6°C° 0 mm 4 mps 745 mmHg 65%
    23:00 +5°C° 0 mm 4 mps 745 mmHg 65%

    24 February, Sunday

    Time Temperature Precipitation Wind Pressure Humidity
    00:00 +5°C° 0 mm 4 mps 745 mmHg 66%
    01:00 +5°C° 0 mm 3 mps 746 mmHg 66%
    02:00 +5°C° 0 mm 3 mps 746 mmHg 66%
    03:00 +4°C° 0 mm 3 mps 746 mmHg 67%
    04:00 +4°C° 0 mm 3 mps 746 mmHg 67%
    05:00 +4°C° 0 mm 3 mps 746 mmHg 66%
    06:00 +4°C° 0 mm 3 mps 746 mmHg 66%
    07:00 +5°C° 0 mm 3 mps 746 mmHg 63%
    08:00 +5°C° 0 mm 3 mps 747 mmHg 60%
    09:00 +7°C° 0 mm 3 mps 747 mmHg 56%
    10:00 +8°C° 0 mm 3 mps 747 mmHg 52%
    11:00 +9°C° 0 mm 3 mps 747 mmHg 48%
    12:00 +10°C° 0 mm 3 mps 747 mmHg 44%
    13:00 +10°C° 0 mm 3 mps 746 mmHg 44%
    14:00 +11°C° 0 mm 3 mps 746 mmHg 44%
    15:00 +11°C° 0 mm 3 mps 745 mmHg 44%
    16:00 +10°C° 0 mm 3 mps 745 mmHg 47%
    17:00 +9°C° 0 mm 2 mps 745 mmHg 50%
    18:00 +9°C° 0 mm 2 mps 745 mmHg 52%
    19:00 +9°C° 0 mm 1 mps 745 mmHg 54%
    20:00 +9°C° 0 mm 1 mps 746 mmHg 56%
    21:00 +7°C° 0 mm 0 mps 746 mmHg 58%
    22:00 +7°C° 0 mm 0 mps 746 mmHg 59%
    23:00 +7°C° 0 mm 0 mps 746 mmHg 59%
    Show more